Rockland, ME

8:51 PM EDT on June 27, 2017 (GMT -0400)
Knox County Regional

Weather History for KRKD - April, 2013

Change the Weather History Date:

Friday, April 5, 2013

  Actual Average Record
Temperature  
Mean Temperature 42 °F -  
Max Temperature 46 °F 43 °F 55 °F (1999)
Min Temperature 37 °F 29 °F 19 °F (2016)
Degree Days  
Heating Degree Days 24    
Moisture  
Dew Point 30 °F    
Average Humidity 62    
Maximum Humidity 75    
Minimum Humidity 34    
Precipitation  
Precipitation 0.00 in - - ()
Sea Level Pressure  
Sea Level Pressure 29.79 in    
Wind  
Wind Speed 12 mph (SW)    
Max Wind Speed 18 mph    
Max Gust Speed 24 mph    
Visibility 10 miles    
Events      
Averages and records for this station are not official NWS values.
T = Trace of Precipitation, MM = Missing Value Source: NWS Daily Summary

Daily Weather History Graph

Daily Weather History Graph

Search for Another Location

Airport or City:

Trip Planner

Search our weather history database for the weather conditions in past years. The results will help you decide how hot, cold, wet, or windy it might be!

Date:

Astronomy

Apr. 05, 2013 Rise Set
Actual Time 6:10 AM EDT 7:08 PM EDT
Civil Twilight 5:40 AM EDT 7:38 PM EDT
Nautical Twilight 5:05 AM EDT 8:13 PM EDT
Astronomical Twilight 4:29 AM EDT 8:50 PM EDT
Moon 3:25 AM EDT (4/5) 2:19 PM EDT (4/5)
Length of Visible Light 13h 57m
Length of Day
12h 58m
Waning Crescent, 24% of the Moon is Illuminated
Apr 5
Waning Crescent
Apr 10
New
Apr 18
First Quarter
Apr 25
Full
May 2
Last Quarter

Hourly Weather History & Observations

Time (EDT) Temp. Windchill Dew Point Humidity Pressure Visibility Wind Dir Wind Speed Gust Speed Precip Events Conditions
12:15 AM 41.0 °F 34.3 °F 32.0 °F 70% 29.96 in 10.0 mi SW 11.5 mph - N/A   Clear
12:55 AM 41.0 °F 33.9 °F 32.0 °F 70% 29.95 in 10.0 mi SW 12.7 mph - N/A   Clear
1:15 AM 41.0 °F 34.3 °F 30.2 °F 65% 29.95 in 10.0 mi SW 11.5 mph 18.4 mph N/A   Clear
1:35 AM 41.0 °F 33.9 °F 32.0 °F 70% 29.94 in 10.0 mi SW 12.7 mph 17.3 mph N/A   Clear
1:55 AM 41.0 °F 33.1 °F 30.2 °F 65% 29.94 in 10.0 mi SW 15.0 mph 19.6 mph N/A   Clear
2:15 AM 41.0 °F 33.5 °F 30.2 °F 65% 29.93 in 10.0 mi SW 13.8 mph 19.6 mph N/A   Clear
2:35 AM 39.2 °F 31.6 °F 30.2 °F 70% 29.93 in 10.0 mi SW 12.7 mph 18.4 mph N/A   Clear
2:55 AM 39.2 °F 31.6 °F 30.2 °F 70% 29.91 in 10.0 mi SW 12.7 mph 21.9 mph N/A   Clear
3:15 AM 39.2 °F 32.0 °F 30.2 °F 70% 29.91 in 10.0 mi SW 11.5 mph 18.4 mph N/A   Clear
3:35 AM 39.2 °F 32.0 °F 30.2 °F 70% 29.90 in 10.0 mi SW 11.5 mph 21.9 mph N/A   Clear
3:55 AM 39.2 °F 32.0 °F 30.2 °F 70% 29.90 in 10.0 mi SW 11.5 mph 17.3 mph N/A   Clear
4:15 AM 39.2 °F 32.0 °F 30.2 °F 70% 29.90 in 10.0 mi SW 11.5 mph 18.4 mph N/A   Clear
4:35 AM 39.2 °F 30.5 °F 30.2 °F 70% 29.90 in 10.0 mi SW 16.1 mph 24.2 mph N/A   Clear
4:55 AM 39.2 °F 31.6 °F 32.0 °F 75% 29.89 in 10.0 mi SW 12.7 mph 20.7 mph N/A   Clear
5:15 AM 39.2 °F 32.0 °F 32.0 °F 75% 29.89 in 10.0 mi SW 11.5 mph 20.7 mph N/A   Clear
5:35 AM 39.2 °F 32.0 °F 30.2 °F 70% 29.89 in 10.0 mi SW 11.5 mph 16.1 mph N/A   Clear
5:55 AM 39.2 °F 33.6 °F 32.0 °F 75% 29.88 in 10.0 mi SW 8.1 mph - N/A   Clear
6:15 AM 39.2 °F 33.6 °F 32.0 °F 75% 29.88 in 10.0 mi WSW 8.1 mph - N/A   Clear
6:35 AM 39.2 °F 33.0 °F 32.0 °F 75% 29.87 in 10.0 mi SSW 9.2 mph 17.3 mph N/A   Clear
6:55 AM 39.2 °F 32.0 °F 32.0 °F 75% 29.87 in 10.0 mi SW 11.5 mph 19.6 mph N/A   Clear
7:15 AM 39.2 °F 33.6 °F 32.0 °F 75% 29.87 in 10.0 mi SW 8.1 mph - N/A   Clear
7:35 AM 39.2 °F 31.6 °F 32.0 °F 75% 29.86 in 10.0 mi SSW 12.7 mph - N/A   Clear
7:55 AM 39.2 °F 33.0 °F 32.0 °F 75% 29.86 in 10.0 mi SW 9.2 mph 16.1 mph N/A   Clear
8:15 AM 39.2 °F 32.5 °F 32.0 °F 75% 29.86 in 10.0 mi SW 10.4 mph 20.7 mph N/A   Clear
8:35 AM 41.0 °F 33.5 °F 30.2 °F 65% 29.85 in 10.0 mi SW 13.8 mph 19.6 mph N/A   Clear
9:15 AM 41.0 °F 32.5 °F 32.0 °F 70% 29.83 in 10.0 mi WSW 17.3 mph 24.2 mph N/A   Clear
9:35 AM 42.8 °F 35.1 °F 30.2 °F 61% 29.82 in 10.0 mi SW 16.1 mph 24.2 mph N/A   Clear
9:55 AM 42.8 °F 35.8 °F 30.2 °F 61% 29.82 in 10.0 mi SW 13.8 mph 23.0 mph N/A   Clear
10:15 AM 44.6 °F 37.2 °F 32.0 °F 61% 29.81 in 10.0 mi WSW 17.3 mph 20.7 mph N/A   Clear
10:35 AM 44.6 °F 38.4 °F 30.2 °F 57% 29.81 in 10.0 mi WSW 12.7 mph 19.6 mph N/A   Clear
10:55 AM 44.6 °F 38.1 °F 30.2 °F 57% 29.81 in 10.0 mi SW 13.8 mph - N/A   Clear
11:15 AM 44.6 °F 37.4 °F 32.0 °F 61% 29.80 in 10.0 mi SSW 16.1 mph 21.9 mph N/A   Clear
11:35 AM 44.6 °F 39.2 °F 30.2 °F 57% 29.79 in 10.0 mi SW 10.4 mph 21.9 mph N/A   Clear
11:55 AM 46.4 °F 40.7 °F 30.2 °F 53% 29.78 in 10.0 mi SW 12.7 mph 23.0 mph N/A   Clear
12:15 PM 46.4 °F 40.7 °F 28.4 °F 50% 29.77 in 10.0 mi SW 12.7 mph - N/A   Clear
12:35 PM 46.4 °F 39.5 °F 32.0 °F 57% 29.77 in 10.0 mi South 17.3 mph 23.0 mph N/A   Clear
12:55 PM 44.6 °F 37.2 °F 32.0 °F 61% 29.76 in 10.0 mi SSW 17.3 mph 21.9 mph N/A   Clear
1:15 PM 44.6 °F 37.4 °F 33.8 °F 66% 29.74 in 10.0 mi South 16.1 mph 20.7 mph N/A   Clear
1:35 PM 44.6 °F 36.9 °F 33.8 °F 66% 29.73 in 10.0 mi South 18.4 mph - N/A   Clear
1:55 PM 46.4 °F 39.5 °F 32.0 °F 57% 29.72 in 10.0 mi South 17.3 mph 21.9 mph N/A   Clear
2:15 PM 44.6 °F 38.1 °F 33.8 °F 66% 29.70 in 10.0 mi South 13.8 mph 20.7 mph N/A   Clear
2:35 PM 44.6 °F 38.1 °F 35.6 °F 71% 29.70 in 10.0 mi South 13.8 mph 21.9 mph N/A   Clear
2:55 PM 46.4 °F 40.7 °F 33.8 °F 62% 29.68 in 10.0 mi South 12.7 mph - N/A   Clear
3:15 PM 46.4 °F 41.5 °F 33.8 °F 62% 29.67 in 10.0 mi SSW 10.4 mph 16.1 mph N/A   Clear
3:35 PM 46.4 °F 40.4 °F 35.6 °F 66% 29.66 in 10.0 mi South 13.8 mph - N/A   Clear
3:55 PM 46.4 °F 41.5 °F 33.8 °F 62% 29.65 in 10.0 mi South 10.4 mph - N/A   Clear
4:15 PM 46.4 °F 41.9 °F 33.8 °F 62% 29.65 in 10.0 mi SSW 9.2 mph - N/A   Clear
4:35 PM 44.6 °F 39.7 °F 33.8 °F 66% 29.65 in 10.0 mi SSW 9.2 mph 16.1 mph N/A   Clear
4:55 PM 46.4 °F 42.4 °F 35.6 °F 66% 29.64 in 10.0 mi South 8.1 mph - N/A   Partly Cloudy
5:15 PM 46.4 °F 40.4 °F 32.0 °F 57% 29.65 in 10.0 mi WSW 13.8 mph 17.3 mph N/A   Partly Cloudy
5:35 PM 46.4 °F 40.7 °F 30.2 °F 53% 29.65 in 10.0 mi WSW 12.7 mph 18.4 mph N/A   Partly Cloudy
5:55 PM 44.6 °F 40.7 °F 30.2 °F 57% 29.65 in 10.0 mi SW 6.9 mph - N/A   Scattered Clouds
6:15 PM 44.6 °F 41.4 °F 30.2 °F 57% 29.66 in 10.0 mi WSW 5.8 mph - N/A   Mostly Cloudy
6:35 PM 44.6 °F 41.4 °F 32.0 °F 61% 29.66 in 10.0 mi WSW 5.8 mph - N/A   Partly Cloudy
6:55 PM 42.8 °F 38.6 °F 33.8 °F 70% 29.66 in 10.0 mi West 6.9 mph - N/A   Clear
7:15 PM 42.8 °F 38.0 °F 33.8 °F 70% 29.68 in 10.0 mi West 8.1 mph - N/A   Clear
7:35 PM 46.4 °F 41.9 °F 24.8 °F 43% 29.68 in 10.0 mi NW 9.2 mph - N/A   Clear
7:55 PM 46.4 °F 40.4 °F 19.4 °F 34% 29.69 in 10.0 mi WNW 13.8 mph 24.2 mph N/A   Clear
8:15 PM 44.6 °F 39.2 °F 19.4 °F 37% 29.70 in 10.0 mi NW 10.4 mph 20.7 mph N/A   Clear
8:35 PM 44.6 °F 39.2 °F 21.2 °F 39% 29.71 in 10.0 mi WNW 10.4 mph 20.7 mph N/A   Partly Cloudy
8:55 PM 44.6 °F 40.7 °F 21.2 °F 39% 29.71 in 10.0 mi NW 6.9 mph 16.1 mph N/A   Clear
9:15 PM 42.8 °F 37.5 °F 23.0 °F 46% 29.73 in 10.0 mi NW 9.2 mph 21.9 mph N/A   Mostly Cloudy
9:35 PM 42.8 °F 38.0 °F 24.8 °F 49% 29.74 in 10.0 mi NW 8.1 mph - N/A   Partly Cloudy
9:55 PM 41.0 °F 34.7 °F 24.8 °F 53% 29.75 in 10.0 mi NW 10.4 mph 16.1 mph N/A   Clear
10:15 PM 39.2 °F 34.2 °F 24.8 °F 56% 29.76 in 10.0 mi NW 6.9 mph - N/A   Clear
10:35 PM 39.2 °F 33.0 °F 24.8 °F 56% 29.75 in 10.0 mi NW 9.2 mph - N/A   Clear
10:55 PM 39.2 °F 33.6 °F 24.8 °F 56% 29.76 in 10.0 mi NW 8.1 mph - N/A   Clear
11:15 PM 37.4 °F 30.8 °F 24.8 °F 60% 29.76 in 10.0 mi NW 9.2 mph 16.1 mph N/A   Clear
11:35 PM 37.4 °F 33.8 °F 24.8 °F 60% 29.76 in 10.0 mi NNW 4.6 mph 17.3 mph N/A   Partly Cloudy
11:55 PM 37.4 °F 32.1 °F 24.8 °F 60% 29.76 in 10.0 mi NW 6.9 mph - N/A   Partly Cloudy